Location: Maiden
(35.5760°N, 81.2120°W)
Time: 11:05:53
(UTC-04:00)

Altair - All Passes

Search period start: 04 August 2020 00:00
Search period end: 14 August 2020 00:00
Orbit: 1501 x 1682 km, 47.2° (Epoch: 03 August)

Date Brightness Start Highest point End Pass type
(mag) Time Alt. Az. Time Alt. Az. Time Alt. Az.
04 Aug - 03:19:37 10° S 03:27:34 30° SE 03:35:15 10° ENE visible
04 Aug - 05:21:58 10° SW 05:31:34 87° NW 05:40:52 10° NE visible
04 Aug - 07:28:19 10° W 07:37:09 44° NNW 07:45:51 10° ENE daylight
04 Aug - 09:34:55 10° WNW 09:43:40 44° NNE 09:52:20 10° E daylight
04 Aug - 11:39:58 10° NW 11:49:11 88° NNE 11:58:30 10° SE daylight
04 Aug - 13:45:42 10° WNW 13:53:05 28° SW 14:00:35 10° S daylight
05 Aug - 02:54:51 10° S 03:02:29 27° SE 03:09:52 10° ENE visible
05 Aug - 04:56:45 10° SW 05:06:23 88° SE 05:15:42 10° NE visible
05 Aug - 07:02:57 10° W 07:11:52 45° NNW 07:20:37 10° ENE daylight
05 Aug - 09:09:41 10° WNW 09:18:23 43° N 09:27:00 10° E daylight
05 Aug - 11:14:48 10° NW 11:24:02 83° NE 11:33:18 10° ESE daylight
05 Aug - 13:20:19 10° WNW 13:28:00 31° SW 13:35:50 10° S daylight
06 Aug - 02:30:10 10° S 02:37:24 24° SE 02:44:27 10° ENE visible
06 Aug - 04:31:34 10° SW 04:41:13 83° SE 04:50:32 10° ENE visible
06 Aug - 06:37:35 10° W 06:46:36 47° NNW 06:55:24 10° ENE daylight
06 Aug - 08:44:24 10° WNW 08:53:05 42° N 09:01:40 10° ENE daylight
06 Aug - 10:49:37 10° NW 10:58:51 78° NNE 11:08:06 10° ESE daylight
06 Aug - 12:54:59 10° WNW 13:02:56 34° SW 13:11:01 10° S daylight
07 Aug - 02:05:32 10° S 02:12:20 22° SE 02:18:57 10° E visible
07 Aug - 04:06:24 10° SW 04:16:03 77° SE 04:25:22 10° ENE visible
07 Aug - 06:12:13 10° W 06:21:19 49° NNW 06:30:12 10° NE visible
07 Aug - 08:19:07 10° WNW 08:27:48 41° N 08:36:21 10° ENE daylight
07 Aug - 10:24:27 10° NW 10:33:40 74° NNE 10:42:53 10° ESE daylight
07 Aug - 12:29:41 10° WNW 12:37:52 38° SW 12:46:09 10° SSE daylight
08 Aug - 01:41:00 10° SSE 01:47:16 19° SE 01:53:22 10° E visible
08 Aug - 03:41:16 10° SW 03:50:54 72° SE 04:00:12 10° ENE visible
08 Aug - 05:46:51 10° W 05:56:03 51° NNW 06:05:01 10° NE visible
08 Aug - 07:53:49 10° WNW 08:02:30 41° N 08:11:02 10° ENE daylight
08 Aug - 09:59:16 10° NW 10:08:29 69° NNE 10:17:38 10° ESE daylight
08 Aug - 12:04:24 10° WNW 12:12:47 42° SW 12:21:16 10° SSE daylight
09 Aug - 01:16:35 10° SSE 01:22:12 17° SE 01:27:42 10° E visible
09 Aug - 03:16:09 10° SW 03:25:45 67° SE 03:35:01 10° ENE visible
09 Aug - 05:21:30 10° W 05:30:48 53° NNW 05:39:49 10° NE visible
09 Aug - 07:28:30 10° WNW 07:37:12 40° N 07:45:43 10° ENE daylight
09 Aug - 09:34:05 10° NW 09:43:16 65° NNE 09:52:23 10° ESE daylight
09 Aug - 11:39:08 10° WNW 11:47:42 46° SW 11:56:20 10° SSE daylight
10 Aug - 00:52:19 10° SSE 00:57:08 15° ESE 01:01:52 10° E visible
10 Aug - 02:51:03 10° SW 03:00:37 62° SE 03:09:50 10° ENE visible
10 Aug - 04:56:09 10° W 05:05:32 56° NNW 05:14:38 10° NE visible
10 Aug - 07:03:11 10° WNW 07:11:53 40° N 07:20:25 10° ENE daylight
10 Aug - 09:08:54 10° NW 09:18:04 62° NNE 09:27:08 10° ESE daylight
10 Aug - 11:13:53 10° WNW 11:22:37 50° SW 11:31:23 10° SSE daylight
11 Aug - 00:28:20 10° SE 00:32:05 13° ESE 00:35:46 10° E visible
11 Aug - 02:25:59 10° SSW 02:35:29 57° SE 02:44:37 10° ENE visible
11 Aug - 04:30:49 10° WSW 04:40:17 59° NNW 04:49:28 10° NE visible
11 Aug - 06:37:51 10° WNW 06:46:35 40° N 06:55:06 10° ENE daylight
11 Aug - 08:43:43 10° NW 08:52:50 59° NNE 09:01:51 10° ESE daylight
11 Aug - 10:48:40 10° WNW 10:57:30 55° SW 11:06:24 10° SSE daylight
11 Aug - 12:58:24 10° WSW 13:00:43 11° WSW 13:03:02 10° SW daylight
12 Aug - 00:05:01 10° SE 00:07:01 11° ESE 00:09:02 10° ESE visible
12 Aug - 02:00:57 10° SSW 02:10:21 52° SE 02:19:24 10° ENE visible
12 Aug - 04:05:29 10° WSW 04:15:03 62° NNW 04:24:18 10° NE visible
12 Aug - 06:12:30 10° WNW 06:21:16 40° N 06:29:49 10° ENE visible
12 Aug - 08:18:30 10° NW 08:27:37 56° NNE 08:36:34 10° E daylight
12 Aug - 10:23:27 10° WNW 10:32:24 60° SW 10:41:23 10° SE daylight
12 Aug - 12:31:55 10° W 12:35:41 13° WSW 12:39:28 10° SSW daylight
13 Aug - 01:35:56 10° SSW 01:45:13 48° SE 01:54:10 10° ENE visible
13 Aug - 03:40:09 10° WSW 03:49:49 66° NNW 03:59:08 10° NE visible
13 Aug - 05:47:08 10° WNW 05:55:58 41° N 06:04:33 10° ENE visible
13 Aug - 07:53:17 10° NW 08:02:21 53° NNE 08:11:17 10° E daylight
13 Aug - 09:58:14 10° WNW 10:07:18 65° SW 10:16:20 10° SE daylight
13 Aug - 12:05:55 10° W 12:10:39 15° WSW 12:15:25 10° SSW daylight
